Temp
-14 -13 -14 -14 -15 -15 -15 -15 -15 -15 -15 -15 -15 -15 -15 -15 -15 -15 -15 -15 -14 -14 -14 -14 -14 -14 -14 -14 -14 -14 -14 -14 -14 -14 -14 -14 -14 -14 -14 -14 -14 -14
-14 -14 -14 -14 -15 -15 -15 -15 -15 -15 -15 -15 -15 -15 -15 -15 -15 -15 -15 -15 -15 -14 -14 -14 -14 -14 -14 -14 -14 -14 -14 -14 -14 -14 -14 -14 -14 -14 -15 -15 -14 -14
-14 -14 -14 -14 -15 -15 -15 -15 -15 -15 -15 -15 -15 -15 -15 -15 -15 -15 -15 -15 -15 -14 -14 -14 -14 -14 -14 -14 -14 -14 -14 -14 -14 -14 -14 -15 -15 -15 -15 -15 -15 -15
-14 -14 -14 -15 -15 -15 -15 -15 -15 -15 -16 -16 -16 -15 -15 -15 -15 -15 -15 -15 -15 -15 -14 -14 -14 -14 -14 -14 -14 -14 -14 -14 -14 -14 -15 -15 -15 -15 -15 -15 -15 -15
-14 -14 -15 -15 -15 -15 -15 -15 -16 -16 -16 -16 -16 -16 -16 -15 -15 -15 -15 -15 -15 -15 -15 -15 -15 -15 -15 -15 -15 -14 -14 -14 -14 -14 -15 -15 -15 -15 -15 -15 -15 -15
-14 -15 -15 -15 -15 -15 -15 -15 -16 -16 -16 -16 -16 -16 -16 -16 -15 -15 -15 -15 -15 -15 -15 -15 -15 -15 -15 -15 -15 -15 -14 -14 -14 -14 -15 -15 -15 -15 -15 -15 -15 -15
-15 -15 -15 -15 -15 -15 -15 -15 -16 -16 -16 -16 -16 -16 -16 -16 -16 -15 -15 -15 -15 -15 -15 -15 -15 -15 -15 -15 -15 -15 -15 -15 -15 -15 -15 -15 -15 -15 -15 -15 -15 -15
-15 -15 -15 -15 -15 -15 -16 -16 -16 -16 -16 -16 -16 -16 -16 -16 -16 -16 -15 -15 -15 -15 -15 -15 -15 -15 -15 -15 -15 -15 -15 -15 -15 -15 -15 -15 -15 -15 -15 -15 -15 -15
-15 -15 -15 -15 -15 -16 -16 -16 -16 -16 -16 -16 -16 -16 -16 -16 -16 -16 -16 -16 -15 -15 -15 -15 -15 -15 -15 -15 -15 -15 -15 -15 -15 -15 -15 -15 -15 -15 -15 -15 -15 -15
-15 -15 -15 -15 -15 -16 -16 -16 -16 -16 -16 -16 -16 -16 -16 -16 -16 -16 -16 -16 -16 -15 -15 -15 -15 -15 -15 -15 -15 -15 -15 -15 -15 -15 -15 -15 -15 -15 -15 -15 -15 -15
-15 -15 -15 -15 -15 -15 -16 -16 -16 -16 -15 -15 -16 -16 -16 -16 -16 -16 -16 -16 -16 -16 -16 -15 -15 -15 -15 -15 -15 -15 -15 -15 -15 -15 -15 -15 -15 -15 -15 -15 -15 -15
-15 -15 -15 -15 -15 -15 -16 -15 -16 -16 -15 -16 -16 -16 -16 -16 -16 -16 -16 -16 -16 -16 -16 -16 -16 -16 -16 -15 -15 -15 -15 -15 -15 -15 -15 -15 -16 -16 -16 -16 -16 -16
-16 -16 -15 -15 -15 -15 -15 -15 -16 -16 -16 -16 -16 -16 -16 -16 -16 -16 -16 -16 -16 -16 -16 -16 -16 -16 -16 -16 -16 -16 -15 -16 -16 -16 -16 -16 -16 -16 -16 -16 -16 -16
-15 -15 -16 -16 -16 -15 -15 -15 -16 -16 -16 -16 -16 -16 -16 -16 -16 -16 -16 -16 -16 -16 -16 -16 -16 -16 -16 -16 -16 -16 -16 -16 -16 -16 -16 -16 -16 -16 -16 -16 -16 -16
-15 -15 -16 -16 -16 -16 -16 -16 -16 -16 -16 -16 -16 -16 -16 -16 -16 -16 -16 -16 -16 -16 -16 -16 -16 -16 -16 -16 -16 -16 -16 -16 -16 -17 -17 -17 -17 -17 -17 -16 -16 -16
-15 -16 -16 -16 -16 -16 -16 -16 -16 -16 -16 -16 -16 -16 -16 -16 -16 -16 -16 -16 -16 -16 -16 -16 -16 -16 -16 -16 -16 -16 -17 -17 -17 -17 -17 -17 -17 -17 -17 -17 -17 -17
-15 -16 -16 -16 -16 -16 -16 -16 -16 -16 -16 -16 -16 -16 -16 -16 -16 -16 -16 -16 -16 -16 -16 -16 -16 -16 -16 -16 -16 -17 -17 -17 -17 -17 -17 -17 -17 -17 -17 -17 -17 -17
-15 -15 -16 -16 -16 -16 -16 -16 -16 -16 -16 -16 -16 -16 -16 -16 -16 -16 -16 -16 -16 -16 -16 -16 -16 -16 -16 -16 -16 -16 -17 -17 -17 -17 -17 -17 -17 -17 -17 -17 -17 -17
-15 -15 -15 -16 -16 -15 -15 -16 -16 -16 -16 -15 -16 -16 -16 -16 -16 -16 -16 -16 -16 -16 -16 -16 -16 -16 -16 -16 -16 -16 -16 -16 -16 -17 -17 -17 -17 -17 -17 -17 -17 -17
-15 -15 -15 -16 -16 -16 -15 -15 -15 -16 -16 -16 -16 -16 -16 -16 -16 -15 -15 -16 -16 -16 -16 -16 -16 -16 -16 -16 -16 -16 -16 -16 -16 -16 -17 -17 -17 -17 -17 -17 -17 -17
-16 -16 -16 -16 -16 -16 -15 -15 -15 -15 -16 -16 -16 -16 -16 -16 -16 -15 -15 -15 -16 -16 -16 -16 -16 -16 -17 -16 -16 -16 -16 -16 -17 -17 -17 -17 -17 -17 -17 -17 -17 -17
-16 -16 -16 -16 -16 -15 -15 -15 -15 -16 -16 -16 -16 -16 -16 -16 -16 -16 -15 -15 -16 -16 -16 -16 -16 -17 -17 -17 -17 -17 -17 -17 -17 -17 -17 -17 -17 -17 -17 -17 -17 -17
-16 -16 -16 -16 -16 -16 -16 -16 -16 -16 -16 -16 -16 -16 -16 -16 -16 -16 -16 -16 -16 -16 -16 -16 -17 -17 -17 -17 -17 -17 -17 -17 -17 -17 -17 -17 -17 -17 -17 -17 -17 -17
-16 -16 -16 -16 -16 -16 -16 -16 -16 -16 -16 -16 -16 -16 -16 -16 -16 -16 -16 -16 -16 -16 -16 -16 -17 -17 -17 -17 -17 -17 -17 -17 -17 -17 -17 -17 -17 -17 -17 -17 -17 -17
-16 -16 -16 -16 -17 -17 -17 -17 -17 -17 -17 -17 -17 -17 -16 -16 -16 -17 -17 -17 -17 -17 -17 -17 -17 -17 -17 -17 -17 -17 -17 -17 -17 -17 -18 -18 -17 -17 -17 -17 -17 -17
-16 -17 -17 -17 -17 -17 -17 -17 -17 -17 -17 -17 -17 -17 -17 -17 -17 -17 -17 -17 -17 -17 -17 -17 -17 -17 -17 -17 -17 -17 -17 -17 -17 -17 -18 -18 -18 -18 -18 -18 -18 -18
Height
5774 5775 5776 5777 5779 5781 5783 5784 5785 5786 5787 5787 5788 5789 5790 5792 5793 5794 5795 5796 5797 5797 5798 5798 5798 5799 5799 5800 5800 5800 5800 5801 5801 5801 5801 5802 5802 5802 5803 5803 5803 5803
5773 5774 5774 5775 5778 5780 5782 5783 5784 5785 5786 5786 5786 5787 5789 5790 5791 5792 5793 5794 5795 5795 5796 5796 5796 5797 5797 5798 5798 5799 5799 5799 5799 5799 5799 5800 5800 5801 5801 5802 5802 5802
5771 5773 5773 5774 5776 5777 5779 5781 5782 5783 5783 5784 5785 5786 5787 5788 5789 5790 5791 5792 5793 5794 5794 5794 5795 5795 5796 5796 5797 5797 5797 5797 5797 5797 5798 5798 5799 5799 5800 5800 5801 5801
5769 5771 5772 5772 5773 5775 5776 5777 5779 5780 5781 5782 5783 5784 5785 5786 5787 5788 5789 5790 5791 5792 5792 5793 5793 5793 5794 5794 5795 5795 5795 5795 5795 5796 5796 5797 5797 5798 5798 5799 5799 5800
5768 5769 5770 5771 5771 5773 5774 5775 5776 5778 5779 5780 5781 5782 5783 5783 5784 5786 5787 5788 5789 5790 5790 5790 5791 5791 5791 5792 5793 5793 5794 5794 5794 5794 5794 5795 5795 5796 5797 5797 5798 5799
5766 5767 5768 5769 5770 5771 5772 5772 5774 5775 5776 5777 5778 5780 5780 5781 5782 5783 5784 5786 5787 5788 5788 5788 5788 5789 5789 5790 5790 5791 5792 5792 5792 5792 5793 5793 5794 5794 5795 5796 5796 5797
5763 5764 5765 5766 5767 5769 5770 5770 5771 5772 5773 5775 5776 5777 5778 5779 5781 5782 5782 5783 5784 5785 5786 5786 5786 5787 5787 5788 5788 5789 5790 5790 5790 5791 5791 5791 5792 5792 5793 5793 5794 5795
5761 5762 5763 5764 5765 5766 5767 5768 5769 5770 5771 5772 5774 5775 5777 5778 5779 5780 5780 5781 5782 5783 5783 5784 5784 5784 5785 5785 5786 5787 5788 5788 5789 5789 5789 5790 5790 5790 5791 5791 5792 5793
5759 5760 5761 5762 5763 5764 5765 5766 5767 5767 5769 5770 5772 5774 5775 5776 5777 5778 5778 5779 5780 5781 5781 5781 5781 5782 5783 5783 5783 5784 5785 5786 5786 5787 5787 5788 5788 5788 5789 5789 5790 5791
5756 5757 5757 5759 5760 5761 5763 5764 5765 5766 5767 5768 5770 5771 5773 5774 5775 5775 5776 5777 5778 5778 5779 5779 5779 5780 5780 5781 5781 5782 5782 5783 5784 5784 5785 5785 5786 5786 5786 5787 5787 5788
5752 5753 5754 5756 5758 5759 5760 5762 5763 5764 5765 5766 5767 5768 5769 5771 5772 5773 5774 5775 5775 5776 5777 5777 5777 5778 5778 5778 5779 5779 5780 5781 5781 5782 5782 5782 5783 5783 5784 5784 5785 5785
5752 5752 5753 5754 5756 5757 5759 5760 5761 5762 5763 5764 5765 5766 5767 5768 5769 5770 5771 5772 5773 5774 5775 5775 5776 5776 5776 5777 5777 5777 5777 5778 5779 5779 5780 5780 5780 5780 5781 5781 5782 5782
5751 5751 5752 5753 5755 5756 5757 5758 5759 5760 5761 5762 5763 5764 5765 5766 5767 5768 5769 5770 5771 5772 5772 5773 5773 5774 5774 5774 5775 5775 5775 5776 5776 5777 5777 5778 5778 5778 5778 5778 5779 5779
5747 5749 5750 5751 5753 5754 5755 5756 5757 5758 5760 5761 5761 5762 5762 5763 5764 5765 5766 5767 5768 5769 5769 5770 5770 5771 5771 5772 5772 5773 5773 5773 5774 5774 5775 5775 5775 5775 5776 5776 5776 5776
5744 5746 5748 5749 5750 5751 5753 5754 5755 5756 5758 5758 5759 5759 5759 5760 5761 5762 5763 5764 5765 5766 5766 5766 5767 5768 5768 5769 5769 5770 5771 5771 5771 5772 5772 5772 5772 5772 5773 5773 5773 5774
5742 5744 5745 5746 5747 5749 5750 5751 5752 5753 5755 5755 5756 5756 5757 5757 5758 5759 5760 5761 5762 5762 5763 5763 5764 5765 5765 5766 5766 5767 5767 5768 5769 5769 5769 5769 5769 5769 5770 5771 5771 5771
5741 5742 5743 5744 5745 5746 5747 5748 5749 5750 5751 5752 5753 5753 5754 5754 5755 5756 5757 5757 5758 5759 5760 5761 5761 5762 5762 5763 5763 5763 5764 5764 5765 5766 5766 5766 5767 5767 5768 5768 5768 5768
5739 5740 5740 5741 5743 5744 5744 5746 5747 5747 5747 5748 5749 5750 5751 5752 5752 5753 5753 5753 5754 5755 5757 5758 5758 5759 5759 5760 5760 5760 5761 5761 5762 5763 5763 5764 5764 5765 5765 5765 5766 5766
5737 5738 5738 5739 5740 5741 5742 5743 5744 5744 5743 5743 5745 5747 5747 5748 5749 5749 5749 5750 5751 5752 5753 5754 5755 5755 5756 5756 5757 5758 5758 5758 5759 5760 5760 5761 5761 5762 5762 5763 5763 5763
5734 5735 5736 5737 5738 5739 5739 5740 5740 5741 5741 5741 5741 5743 5744 5744 5744 5744 5744 5746 5747 5748 5749 5750 5751 5751 5752 5753 5754 5755 5755 5755 5756 5756 5757 5757 5758 5758 5759 5759 5760 5760
5730 5732 5733 5734 5735 5736 5736 5735 5736 5737 5738 5737 5738 5739 5740 5740 5741 5741 5741 5742 5743 5743 5744 5745 5746 5747 5748 5750 5751 5751 5752 5752 5752 5753 5753 5754 5754 5754 5755 5755 5756 5756
5728 5729 5730 5730 5731 5732 5732 5733 5733 5734 5734 5734 5735 5736 5736 5737 5737 5738 5738 5738 5739 5739 5741 5742 5743 5744 5745 5746 5747 5748 5748 5749 5749 5749 5750 5750 5750 5750 5750 5751 5751 5751
5725 5726 5727 5727 5728 5729 5729 5730 5731 5731 5731 5732 5733 5733 5734 5734 5734 5735 5735 5735 5736 5736 5737 5738 5739 5741 5742 5743 5744 5744 5745 5745 5746 5746 5746 5746 5746 5746 5746 5746 5746 5746
5722 5723 5724 5725 5726 5726 5727 5728 5728 5728 5729 5729 5730 5730 5731 5731 5732 5732 5733 5733 5734 5734 5735 5736 5737 5738 5739 5740 5740 5741 5741 5742 5742 5742 5742 5742 5742 5741 5741 5741 5741 5741
5719 5720 5721 5722 5722 5723 5724 5725 5725 5725 5726 5727 5727 5728 5728 5729 5729 5730 5730 5731 5731 5732 5733 5734 5735 5735 5736 5736 5737 5737 5737 5737 5737 5737 5738 5737 5737 5736 5736 5736 5736 5736
5716 5717 5718 5718 5719 5720 5721 5722 5722 5723 5723 5724 5725 5725 5726 5726 5727 5727 5727 5728 5729 5730 5731 5731 5731 5732 5732 5732 5733 5733 5733 5734 5734 5733 5733 5732 5732 5732 5732 5732 5731 5730
Wind_Speed
28 25 23 23 22 21 19 19 20 20 19 19 19 18 17 17 18 19 19 20 20 21 20 19 19 19 19 18 17 17 17 16 16 16 16 15 13 11 9 8 9 9
28 24 20 21 21 19 19 19 20 20 21 21 20 18 18 18 19 19 20 20 21 20 19 19 19 19 19 19 18 17 16 16 15 15 15 15 14 12 10 9 9 10
26 22 18 19 19 19 19 19 20 21 22 22 20 18 18 19 19 19 19 19 19 18 18 18 18 19 19 19 18 17 16 15 14 14 15 15 15 13 11 10 10 11
25 20 16 16 18 19 19 20 20 21 21 20 19 18 18 18 18 17 17 17 17 17 16 17 18 19 19 19 18 17 15 14 13 13 14 14 15 13 12 11 11 12
26 20 14 14 17 19 19 20 20 20 19 19 19 19 19 18 17 16 16 16 16 16 16 17 18 18 18 18 17 16 14 13 12 12 13 13 13 13 12 12 12 13
27 21 13 12 15 18 19 19 19 18 19 20 20 19 19 18 17 16 16 16 16 16 17 17 18 18 18 18 17 15 13 12 11 11 11 12 12 12 12 13 14 14
28 23 16 14 16 17 17 17 17 17 19 20 20 19 20 19 18 17 16 16 17 17 17 18 18 19 19 19 18 16 14 12 11 11 11 11 12 12 13 14 14 15
26 23 19 17 17 16 16 16 15 16 17 18 18 19 20 21 19 17 16 16 16 16 16 17 18 19 19 19 18 17 15 14 13 12 12 11 11 12 13 14 15 15
23 22 20 19 19 17 16 17 16 16 17 18 18 19 20 20 18 16 16 15 14 14 14 15 16 18 19 19 18 17 16 15 15 15 15 14 14 14 14 15 16 17
24 22 22 22 21 19 19 19 17 17 18 19 19 20 21 20 17 16 16 15 14 13 13 14 16 18 19 19 18 17 16 15 15 15 16 16 16 16 16 17 18 18
26 24 24 23 22 21 20 19 18 18 18 20 22 23 23 21 18 17 17 16 16 15 15 15 16 18 19 20 19 18 16 15 15 16 17 17 17 18 18 19 20 20
24 24 23 22 21 21 20 19 18 18 20 22 23 24 24 21 19 19 19 19 18 17 17 17 18 19 20 21 21 20 19 18 17 18 19 19 19 19 19 20 21 21
23 24 22 20 19 20 19 18 18 18 20 22 23 24 24 22 21 21 22 21 20 19 19 19 20 21 22 22 22 22 21 20 19 19 20 20 20 20 20 21 22 22
23 24 24 21 19 19 19 18 18 18 20 21 23 24 24 24 23 23 23 23 22 21 21 21 21 21 21 21 22 21 21 19 19 19 20 20 20 20 21 22 22 22
22 25 25 24 21 21 21 20 19 19 19 19 21 23 25 25 25 25 25 25 24 22 21 21 21 21 20 20 20 20 18 17 18 19 19 20 20 21 21 21 21 22
22 24 26 25 24 24 24 24 23 21 20 20 20 22 24 26 27 28 28 28 27 25 23 21 21 21 21 21 20 19 17 16 17 19 20 20 21 22 22 22 21 22
22 23 25 25 25 25 26 26 24 23 23 23 23 23 24 25 27 28 29 31 31 30 27 24 23 23 22 21 21 19 17 16 17 19 21 22 22 23 23 23 23 23
24 24 25 26 26 26 27 27 25 25 27 27 27 27 26 26 28 29 30 32 32 31 30 27 27 27 24 22 21 20 18 18 19 20 22 24 25 26 26 26 26 26
26 25 26 26 26 26 27 27 27 29 31 32 31 31 30 29 31 33 35 36 34 32 31 30 31 31 27 23 22 21 21 21 22 23 24 26 28 29 29 29 29 29
26 27 27 26 27 27 27 28 30 32 34 35 35 33 30 27 27 29 32 34 35 34 34 34 34 32 27 24 24 24 24 24 24 25 26 27 29 30 31 31 32 32
26 26 26 26 26 28 28 29 30 31 32 31 28 26 24 22 22 22 24 27 30 33 34 32 30 29 26 25 25 25 25 25 25 26 27 28 29 30 31 31 32 33
25 24 24 23 24 25 26 26 27 28 29 27 24 21 21 21 21 22 22 23 25 27 28 27 26 26 25 25 25 26 26 26 26 26 27 28 29 29 30 31 32 33
24 24 24 23 23 24 24 24 25 26 26 25 23 22 22 22 22 22 21 21 22 24 25 25 25 25 25 25 25 26 27 27 28 29 29 29 30 30 31 32 33 33
24 24 24 24 24 24 24 24 25 25 25 24 24 23 23 23 22 22 21 21 23 24 25 25 26 25 25 25 26 27 28 29 31 32 32 32 33 33 34 35 36 36
25 25 24 23 23 23 24 25 26 26 25 24 24 24 23 23 24 24 24 24 24 25 25 25 26 26 27 28 29 30 31 32 33 34 35 36 37 38 38 39 40 41
26 25 24 23 23 24 25 26 26 25 24 24 24 25 25 25 26 27 26 25 25 25 25 25 27 29 30 31 33 34 35 36 36 37 37 38 39 39 39 40 42 44
Wind_Direction
244 240 243 244 243 242 237 235 239 242 245 250 249 245 242 241 242 244 247 250 255 258 258 256 255 256 257 256 255 256 259 264 266 265 262 259 253 248 247 249 254 258
236 231 241 243 239 238 236 238 242 244 247 248 245 241 240 240 241 243 247 251 254 254 252 251 252 254 254 253 252 254 259 263 264 263 257 253 250 248 250 253 254 255
224 227 247 245 235 233 234 237 242 244 247 245 240 239 239 240 240 242 246 248 248 247 246 247 250 252 252 251 250 252 255 258 261 260 254 249 247 247 248 250 250 250
222 229 253 246 233 231 231 235 240 243 245 242 239 239 241 241 239 238 240 240 240 240 243 248 250 250 251 250 250 252 252 254 257 256 251 247 245 243 242 243 244 245
227 228 245 245 236 232 230 234 239 242 243 242 242 244 244 241 235 232 235 236 237 240 245 251 252 251 251 250 251 251 251 251 252 252 249 246 243 238 236 238 242 244
229 227 241 246 238 234 232 236 240 241 240 242 245 246 243 237 230 232 240 242 243 246 250 253 252 251 249 248 249 249 249 251 252 253 251 246 242 236 234 236 240 243
229 230 247 249 236 231 231 234 237 236 236 240 242 240 237 234 234 240 247 248 249 250 250 250 249 248 246 245 245 246 249 252 256 259 257 252 247 241 239 240 242 245
228 233 249 245 228 224 229 232 230 230 234 237 234 232 233 235 238 244 247 247 249 249 246 245 245 245 243 242 243 246 250 255 259 263 263 260 256 251 249 248 249 251
228 234 242 233 221 220 227 230 227 227 232 233 229 230 234 234 235 240 242 242 245 246 244 244 244 244 244 243 244 248 253 257 261 263 264 264 263 260 258 256 255 255
228 233 233 225 219 219 222 223 222 223 228 230 227 229 235 234 231 234 237 238 242 247 249 249 246 246 245 244 244 246 250 256 260 262 263 263 263 260 259 258 257 256
227 229 227 223 221 220 219 220 221 222 227 230 229 229 233 233 230 232 236 238 243 250 254 254 251 248 246 244 243 243 247 255 262 264 263 261 260 258 255 255 255 255
234 231 227 225 225 224 222 223 224 224 226 230 231 231 234 235 233 235 238 241 246 251 255 256 255 253 250 248 246 246 250 257 263 265 263 261 258 255 254 253 253 253
237 232 227 229 231 229 228 228 228 227 226 228 230 233 237 240 239 239 240 243 247 251 255 256 256 254 252 252 252 252 253 257 262 263 262 260 258 255 253 253 253 253
232 227 227 234 236 232 232 233 233 232 231 231 233 236 241 244 245 244 243 244 248 253 256 258 257 256 255 256 257 257 256 258 260 260 259 258 255 253 252 252 252 252
229 225 227 235 235 231 233 236 237 238 238 237 237 239 243 246 247 247 245 244 246 252 257 258 258 260 261 261 261 259 257 256 257 257 256 254 252 251 251 251 251 252
233 230 230 235 235 233 236 240 243 245 243 241 241 242 243 244 246 248 247 247 247 251 256 259 261 262 263 262 258 253 250 249 253 254 252 251 250 251 251 252 253 254
237 237 236 238 239 240 243 247 249 251 249 247 245 245 245 246 248 249 250 250 250 252 255 258 260 261 262 260 253 246 241 241 247 250 250 250 251 251 251 251 252 252
231 235 238 241 243 247 251 254 254 254 254 251 247 246 248 251 251 251 251 251 251 252 253 256 257 258 258 255 248 241 237 236 239 243 245 247 248 249 249 250 251 251
229 232 237 241 245 249 251 252 252 252 253 254 254 253 254 254 253 252 250 249 250 252 254 256 258 255 250 245 243 241 240 239 238 239 241 243 245 247 249 251 252 253
231 232 236 240 244 247 246 244 245 247 251 255 257 257 254 251 251 252 250 248 248 249 251 254 254 248 241 238 240 243 245 245 242 241 242 243 245 247 250 252 254 255
232 235 238 240 242 244 243 241 244 248 251 254 254 249 245 244 248 251 252 250 247 245 246 247 245 240 236 236 240 246 251 252 250 250 251 251 251 252 253 254 256 257
232 233 234 235 235 239 242 243 246 250 252 252 249 243 240 243 247 249 250 248 244 240 239 237 235 234 236 238 244 250 255 257 257 257 258 259 259 259 259 260 261 262
228 228 230 233 237 241 244 246 248 250 249 248 245 242 240 241 243 246 246 243 237 233 231 230 231 233 237 242 248 253 257 259 260 260 261 263 264 265 266 265 265 266
228 231 234 237 241 244 247 249 248 248 246 244 242 241 241 240 240 241 241 240 236 232 231 231 233 237 243 248 253 257 259 261 261 261 262 263 265 266 267 267 267 267
237 239 240 241 242 245 247 248 247 246 245 245 243 241 240 241 241 239 238 238 237 237 238 240 242 246 249 253 257 260 261 261 261 262 263 264 265 265 266 267 268 268
243 245 246 244 243 242 242 243 244 244 244 244 243 242 243 246 245 241 239 239 241 243 245 248 251 253 255 258 261 263 263 263 263 264 263 263 265 266 266 267 268 268